Year,Month,Day,Hour,Minute,Value (Times are PST for temperature in C)
2007,12,05,00,00,7.70
2007,12,05,00,01,7.60
2007,12,05,00,02,7.50
2007,12,05,00,03,7.30
2007,12,05,00,04,7.40
2007,12,05,00,05,7.60
2007,12,05,00,06,7.50
2007,12,05,00,07,7.50
2007,12,05,00,08,7.40
2007,12,05,00,09,7.40
2007,12,05,00,10,7.40
2007,12,05,00,11,7.40
2007,12,05,00,12,7.30
2007,12,05,00,13,7.30
2007,12,05,00,14,7.50
2007,12,05,00,15,7.80
2007,12,05,00,16,7.90
2007,12,05,00,17,8.00
2007,12,05,00,18,8.10
2007,12,05,00,19,8.10
2007,12,05,00,20,8.20
2007,12,05,00,21,8.20
2007,12,05,00,22,8.20
2007,12,05,00,23,8.20
2007,12,05,00,24,8.20
2007,12,05,00,25,8.20
2007,12,05,00,26,8.20
2007,12,05,00,27,8.20
2007,12,05,00,28,8.30
2007,12,05,00,29,8.30
2007,12,05,00,30,8.30
2007,12,05,00,31,8.30
2007,12,05,00,32,8.30
2007,12,05,00,33,8.30
2007,12,05,00,34,8.40
2007,12,05,00,35,8.60
2007,12,05,00,36,8.80
2007,12,05,00,37,9.00
2007,12,05,00,38,9.10
2007,12,05,00,39,9.10
2007,12,05,00,40,9.10
2007,12,05,00,41,9.10
2007,12,05,00,42,9.10
2007,12,05,00,43,9.10
2007,12,05,00,44,9.00
2007,12,05,00,45,9.00
2007,12,05,00,46,9.00
2007,12,05,00,47,9.00
2007,12,05,00,48,9.10
2007,12,05,00,49,9.10
2007,12,05,00,50,9.10
2007,12,05,00,51,9.10
2007,12,05,00,52,9.10
2007,12,05,00,53,9.20
2007,12,05,00,54,9.20
2007,12,05,00,55,9.20
2007,12,05,00,56,9.20
2007,12,05,00,57,9.20
2007,12,05,00,58,9.10
2007,12,05,00,59,9.10
2007,12,05,01,00,9.10
2007,12,05,01,01,9.10
2007,12,05,01,02,9.10
2007,12,05,01,03,9.10
2007,12,05,01,04,9.10
2007,12,05,01,05,9.10
2007,12,05,01,06,9.10
2007,12,05,01,07,9.10
2007,12,05,01,08,9.00
2007,12,05,01,09,9.00
2007,12,05,01,10,8.90
2007,12,05,01,11,8.90
2007,12,05,01,12,8.90
2007,12,05,01,13,8.90
2007,12,05,01,14,8.90
2007,12,05,01,15,8.90
2007,12,05,01,16,8.80
2007,12,05,01,17,8.80
2007,12,05,01,18,8.80
2007,12,05,01,19,8.70
2007,12,05,01,20,8.60
2007,12,05,01,21,8.40
2007,12,05,01,22,8.30
2007,12,05,01,23,8.30
2007,12,05,01,24,8.20
2007,12,05,01,25,8.10
2007,12,05,01,26,8.00
2007,12,05,01,27,7.90
2007,12,05,01,28,7.90
2007,12,05,01,29,7.90
2007,12,05,01,30,7.80
2007,12,05,01,31,7.60
2007,12,05,01,32,7.60
2007,12,05,01,33,7.60
2007,12,05,01,34,7.60
2007,12,05,01,35,7.60
2007,12,05,01,36,7.60
2007,12,05,01,37,7.50
2007,12,05,01,38,7.50
2007,12,05,01,39,7.40
2007,12,05,01,40,7.40
2007,12,05,01,41,7.50
2007,12,05,01,42,7.60
2007,12,05,01,43,7.70
2007,12,05,01,44,7.90
2007,12,05,01,45,8.00
2007,12,05,01,46,8.10
2007,12,05,01,47,8.10
2007,12,05,01,48,8.20
2007,12,05,01,49,8.20
2007,12,05,01,50,8.20
2007,12,05,01,51,8.30
2007,12,05,01,52,8.40
2007,12,05,01,53,8.40
2007,12,05,01,54,8.50
2007,12,05,01,55,8.60
2007,12,05,01,56,8.60
2007,12,05,01,57,8.70
2007,12,05,01,58,8.70
2007,12,05,01,59,8.70
2007,12,05,02,00,8.60
2007,12,05,02,01,8.50
2007,12,05,02,02,8.40
2007,12,05,02,03,8.30
2007,12,05,02,04,8.20
2007,12,05,02,05,8.20
2007,12,05,02,06,8.10
2007,12,05,02,07,8.10
2007,12,05,02,08,8.20
2007,12,05,02,09,8.20
2007,12,05,02,10,8.20
2007,12,05,02,11,8.30
2007,12,05,02,12,8.30
2007,12,05,02,13,8.30
2007,12,05,02,14,8.40
2007,12,05,02,15,8.50
2007,12,05,02,16,8.50
2007,12,05,02,17,8.60
2007,12,05,02,18,8.60
2007,12,05,02,19,8.50
2007,12,05,02,20,8.50
2007,12,05,02,21,8.30
2007,12,05,02,22,8.10
2007,12,05,02,23,8.00
2007,12,05,02,24,8.00
2007,12,05,02,25,7.90
2007,12,05,02,26,7.90
2007,12,05,02,27,7.90
2007,12,05,02,28,7.90
2007,12,05,02,29,7.90
2007,12,05,02,30,7.90
2007,12,05,02,31,7.90
2007,12,05,02,32,7.90
2007,12,05,02,33,7.90
2007,12,05,02,34,7.80
2007,12,05,02,35,7.90
2007,12,05,02,36,7.90
2007,12,05,02,37,7.90
2007,12,05,02,38,8.00
2007,12,05,02,39,8.10
2007,12,05,02,40,8.20
2007,12,05,02,41,8.40
2007,12,05,02,42,8.40
2007,12,05,02,43,8.30
2007,12,05,02,44,8.30
2007,12,05,02,45,8.20
2007,12,05,02,46,8.10
2007,12,05,02,47,8.00
2007,12,05,02,48,7.80
2007,12,05,02,49,7.70
2007,12,05,02,50,7.60
2007,12,05,02,51,7.50
2007,12,05,02,52,7.40
2007,12,05,02,53,7.30
2007,12,05,02,54,7.20
2007,12,05,02,55,7.10
2007,12,05,02,56,7.00
2007,12,05,02,57,7.00
2007,12,05,02,58,6.90
2007,12,05,02,59,6.80
2007,12,05,03,00,6.80
2007,12,05,03,01,6.80
2007,12,05,03,02,7.00
2007,12,05,03,03,7.10
2007,12,05,03,04,7.20
2007,12,05,03,05,7.30
2007,12,05,03,06,7.30
2007,12,05,03,07,7.30
2007,12,05,03,08,7.40
2007,12,05,03,09,7.60
2007,12,05,03,10,7.70
2007,12,05,03,11,7.80
2007,12,05,03,12,7.80
2007,12,05,03,13,7.80
2007,12,05,03,14,7.80
2007,12,05,03,15,7.70
2007,12,05,03,16,7.70
2007,12,05,03,17,7.70
2007,12,05,03,18,7.60
2007,12,05,03,19,7.50
2007,12,05,03,20,7.40
2007,12,05,03,21,7.30
2007,12,05,03,22,7.30
2007,12,05,03,23,7.30
2007,12,05,03,24,7.40
2007,12,05,03,25,7.50
2007,12,05,03,26,7.60
2007,12,05,03,27,7.70
2007,12,05,03,28,7.80
2007,12,05,03,29,7.80
2007,12,05,03,30,7.90
2007,12,05,03,31,8.00
2007,12,05,03,32,8.00
2007,12,05,03,33,8.00
2007,12,05,03,34,8.00
2007,12,05,03,35,8.10
2007,12,05,03,36,8.10
2007,12,05,03,37,8.10
2007,12,05,03,38,8.10
2007,12,05,03,39,8.10
2007,12,05,03,40,8.10
2007,12,05,03,41,8.10
2007,12,05,03,42,8.20
2007,12,05,03,43,8.30
2007,12,05,03,44,8.30
2007,12,05,03,45,8.40
2007,12,05,03,46,8.40
2007,12,05,03,47,8.50
2007,12,05,03,48,8.50
2007,12,05,03,49,8.60
2007,12,05,03,50,8.60
2007,12,05,03,51,8.50
2007,12,05,03,52,8.50
2007,12,05,03,53,8.60
2007,12,05,03,54,8.60
2007,12,05,03,55,8.60
2007,12,05,03,56,8.70
2007,12,05,03,57,8.70
2007,12,05,03,58,8.70
2007,12,05,03,59,8.70
2007,12,05,04,00,8.70
2007,12,05,04,01,8.80
2007,12,05,04,02,8.80
2007,12,05,04,03,8.80
2007,12,05,04,04,8.80
2007,12,05,04,05,8.80
2007,12,05,04,07,8.80
2007,12,05,04,08,8.80
2007,12,05,04,09,8.80
2007,12,05,04,10,8.80
2007,12,05,04,11,8.80
2007,12,05,04,12,8.80
2007,12,05,04,13,8.80
2007,12,05,04,14,8.80
2007,12,05,04,15,8.80
2007,12,05,04,16,8.80
2007,12,05,04,17,8.80
2007,12,05,04,18,8.80
2007,12,05,04,19,8.90
2007,12,05,04,20,8.90
2007,12,05,04,21,8.90
2007,12,05,04,22,8.90
2007,12,05,04,23,8.80
2007,12,05,04,24,8.80
2007,12,05,04,25,8.80
2007,12,05,04,26,8.80
2007,12,05,04,27,8.70
2007,12,05,04,28,8.70
2007,12,05,04,29,8.70
2007,12,05,04,30,8.70
2007,12,05,04,31,8.60
2007,12,05,04,32,8.60
2007,12,05,04,33,8.60
2007,12,05,04,34,8.60
2007,12,05,04,35,8.60
2007,12,05,04,36,8.60
2007,12,05,04,37,8.60
2007,12,05,04,38,8.60
2007,12,05,04,39,8.60
2007,12,05,04,40,8.60
2007,12,05,04,41,8.60
2007,12,05,04,42,8.60
2007,12,05,04,43,8.60
2007,12,05,04,44,8.60
2007,12,05,04,45,8.60
2007,12,05,04,46,8.70
2007,12,05,04,47,8.70
2007,12,05,04,48,8.60
2007,12,05,04,49,8.70
2007,12,05,04,50,8.60
2007,12,05,04,51,8.60
2007,12,05,04,52,8.60
2007,12,05,04,53,8.60
2007,12,05,04,54,8.60
2007,12,05,04,55,8.60
2007,12,05,04,56,8.60
2007,12,05,04,57,8.50
2007,12,05,04,58,8.40
2007,12,05,04,59,8.40
2007,12,05,05,00,8.30
2007,12,05,05,01,8.20
2007,12,05,05,02,8.20
2007,12,05,05,03,8.20
2007,12,05,05,04,8.20
2007,12,05,05,05,8.20
2007,12,05,05,06,8.20
2007,12,05,05,07,8.10
2007,12,05,05,08,8.10
2007,12,05,05,09,8.00
2007,12,05,05,10,8.00
2007,12,05,05,11,7.90
2007,12,05,05,12,7.90
2007,12,05,05,13,7.90
2007,12,05,05,14,7.90
2007,12,05,05,15,7.90
2007,12,05,05,16,7.90
2007,12,05,05,17,7.90
2007,12,05,05,18,7.80
2007,12,05,05,19,7.80
2007,12,05,05,20,7.80
2007,12,05,05,21,7.80
2007,12,05,05,22,7.80
2007,12,05,05,23,7.80
2007,12,05,05,24,7.80
2007,12,05,05,25,7.80
2007,12,05,05,26,7.90
2007,12,05,05,27,7.90
2007,12,05,05,28,7.90
2007,12,05,05,29,7.80
2007,12,05,05,30,7.80
2007,12,05,05,31,7.80
2007,12,05,05,32,7.80
2007,12,05,05,33,7.80
2007,12,05,05,34,7.80
2007,12,05,05,35,7.80
2007,12,05,05,36,7.80
2007,12,05,05,37,7.80
2007,12,05,05,38,7.80
2007,12,05,05,39,7.90
2007,12,05,05,40,7.90
2007,12,05,05,41,8.00
2007,12,05,05,42,8.10
2007,12,05,05,43,8.10
2007,12,05,05,44,8.20
2007,12,05,05,45,8.20
2007,12,05,05,46,8.20
2007,12,05,05,47,8.20
2007,12,05,05,48,8.10
2007,12,05,05,49,8.00
2007,12,05,05,50,8.00
2007,12,05,05,51,8.00
2007,12,05,05,52,8.00
2007,12,05,05,53,8.00
2007,12,05,05,54,8.00
2007,12,05,05,55,8.10
2007,12,05,05,56,8.10
2007,12,05,05,57,8.10
2007,12,05,05,58,8.10
2007,12,05,05,59,8.10
2007,12,05,06,00,8.10
2007,12,05,06,01,8.10
2007,12,05,06,02,8.10
2007,12,05,06,03,8.00
2007,12,05,06,04,8.00
2007,12,05,06,05,7.90
2007,12,05,06,06,7.90
2007,12,05,06,07,7.90
2007,12,05,06,08,7.90
2007,12,05,06,09,7.80
2007,12,05,06,10,7.80
2007,12,05,06,11,7.80
2007,12,05,06,12,7.80
2007,12,05,06,13,7.80
2007,12,05,06,14,7.80
2007,12,05,06,15,7.70
2007,12,05,06,16,7.70
2007,12,05,06,17,7.70
2007,12,05,06,18,7.70
2007,12,05,06,19,7.60
2007,12,05,06,20,7.60
2007,12,05,06,21,7.60
2007,12,05,06,22,7.60
2007,12,05,06,23,7.50
2007,12,05,06,24,7.60
2007,12,05,06,25,7.60
2007,12,05,06,26,7.60
2007,12,05,06,27,7.60
2007,12,05,06,28,7.60
2007,12,05,06,29,7.50
2007,12,05,06,30,7.50
2007,12,05,06,31,7.60
2007,12,05,06,32,7.60
2007,12,05,06,33,7.60
2007,12,05,06,34,7.50
2007,12,05,06,35,7.50
2007,12,05,06,36,7.50
2007,12,05,06,37,7.40
2007,12,05,06,38,7.40
2007,12,05,06,39,7.30
2007,12,05,06,40,7.30
2007,12,05,06,41,7.30
2007,12,05,06,42,7.20
2007,12,05,06,43,7.20
2007,12,05,06,44,7.20
2007,12,05,06,45,7.20
2007,12,05,06,46,7.20
2007,12,05,06,47,7.20
2007,12,05,06,48,7.20
2007,12,05,06,49,7.20
2007,12,05,06,50,7.20
2007,12,05,06,51,7.20
2007,12,05,06,52,7.20
2007,12,05,06,53,7.20
2007,12,05,06,54,7.20
2007,12,05,06,55,7.20
2007,12,05,06,56,7.20
2007,12,05,06,57,7.10
2007,12,05,06,58,7.20
2007,12,05,06,59,7.20
2007,12,05,07,00,7.20
2007,12,05,07,01,7.20
2007,12,05,07,02,7.20
2007,12,05,07,03,7.20
2007,12,05,07,04,7.20
2007,12,05,07,05,7.20
2007,12,05,07,06,7.20
2007,12,05,07,07,7.20
2007,12,05,07,08,7.20
2007,12,05,07,09,7.20
2007,12,05,07,10,7.20
2007,12,05,07,11,7.20
2007,12,05,07,12,7.20
2007,12,05,07,13,7.20
2007,12,05,07,14,7.20
2007,12,05,07,15,7.20
2007,12,05,07,16,7.20
2007,12,05,07,17,7.20
2007,12,05,07,18,7.20
2007,12,05,07,19,7.20
2007,12,05,07,20,7.30
2007,12,05,07,21,7.30
2007,12,05,07,22,7.30
2007,12,05,07,23,7.30
2007,12,05,07,24,7.30
2007,12,05,07,25,7.30
2007,12,05,07,26,7.30
2007,12,05,07,27,7.30
2007,12,05,07,28,7.20
2007,12,05,07,29,7.20
2007,12,05,07,30,7.20
2007,12,05,07,31,7.20
2007,12,05,07,32,7.20
2007,12,05,07,33,7.20
2007,12,05,07,34,7.20
2007,12,05,07,35,7.10
2007,12,05,07,36,7.00
2007,12,05,07,37,6.90
2007,12,05,07,38,6.90
2007,12,05,07,39,6.80
2007,12,05,07,40,6.70
2007,12,05,07,41,6.70
2007,12,05,07,42,6.70
2007,12,05,07,43,6.70
2007,12,05,07,44,6.70
2007,12,05,07,45,6.70
2007,12,05,07,46,6.70
2007,12,05,07,47,6.60
2007,12,05,07,48,6.40
2007,12,05,07,49,6.30
2007,12,05,07,50,6.20
2007,12,05,07,51,6.10
2007,12,05,07,52,6.10
2007,12,05,07,53,6.10
2007,12,05,07,54,6.10
2007,12,05,07,55,6.10
2007,12,05,07,56,6.10
2007,12,05,07,57,6.10
2007,12,05,07,58,6.00
2007,12,05,07,59,5.90
2007,12,05,08,00,5.90
2007,12,05,08,01,5.80
2007,12,05,08,02,5.70
2007,12,05,08,03,5.60
2007,12,05,08,04,5.40
2007,12,05,08,05,5.30
2007,12,05,08,06,5.30
2007,12,05,08,07,5.20
2007,12,05,08,08,5.10
2007,12,05,08,09,5.00
2007,12,05,08,10,4.90
2007,12,05,08,11,4.90
2007,12,05,08,12,4.80
2007,12,05,08,13,4.80
2007,12,05,08,14,4.80
2007,12,05,08,15,4.70
2007,12,05,08,16,4.70
2007,12,05,08,17,4.60
2007,12,05,08,18,4.60
2007,12,05,08,19,4.60
2007,12,05,08,20,4.50
2007,12,05,08,21,4.50
2007,12,05,08,22,4.40
2007,12,05,08,23,4.40
2007,12,05,08,24,4.30
2007,12,05,08,25,4.30
2007,12,05,08,26,4.30
2007,12,05,08,27,4.30
2007,12,05,08,28,4.20
2007,12,05,08,29,4.20
2007,12,05,08,30,4.20
2007,12,05,08,31,4.20
2007,12,05,08,32,4.20
2007,12,05,08,33,4.30
2007,12,05,08,34,4.30
2007,12,05,08,35,4.40
2007,12,05,08,36,4.40
2007,12,05,08,37,4.50
2007,12,05,08,38,4.60
2007,12,05,08,39,4.60
2007,12,05,08,40,4.80
2007,12,05,08,41,4.80
2007,12,05,08,42,4.90
2007,12,05,08,43,5.00
2007,12,05,08,44,5.10
2007,12,05,08,45,5.10
2007,12,05,08,46,5.10
2007,12,05,08,47,5.00
2007,12,05,08,48,5.10
2007,12,05,08,49,5.10
2007,12,05,08,50,5.20
2007,12,05,08,51,5.20
2007,12,05,08,52,5.20
2007,12,05,08,53,5.20
2007,12,05,08,54,5.20
2007,12,05,08,55,5.20
2007,12,05,08,56,5.30
2007,12,05,08,57,5.30
2007,12,05,08,58,5.40
2007,12,05,08,59,5.50
2007,12,05,09,00,5.50
2007,12,05,09,01,5.60
2007,12,05,09,02,5.70
2007,12,05,09,03,5.80
2007,12,05,09,04,6.00
2007,12,05,09,05,6.20
2007,12,05,09,06,6.40
2007,12,05,09,07,6.50
2007,12,05,09,08,6.70
2007,12,05,09,09,6.80
2007,12,05,09,10,6.90
2007,12,05,09,11,6.90
2007,12,05,09,12,6.90
2007,12,05,09,13,6.90
2007,12,05,09,14,7.00
2007,12,05,09,15,7.00
2007,12,05,09,16,7.00
2007,12,05,09,17,7.00
2007,12,05,09,18,7.00
2007,12,05,09,19,7.00
2007,12,05,09,20,7.10
2007,12,05,09,21,7.20
2007,12,05,09,22,7.20
2007,12,05,09,23,7.20
2007,12,05,09,24,7.30
2007,12,05,09,25,7.40
2007,12,05,09,26,7.40
2007,12,05,09,27,7.50
2007,12,05,09,28,7.60
2007,12,05,09,29,7.70
2007,12,05,09,30,7.70
2007,12,05,09,31,7.70
2007,12,05,09,32,7.80
2007,12,05,09,33,7.80
2007,12,05,09,34,7.70
2007,12,05,09,35,7.80
2007,12,05,09,36,7.80
2007,12,05,09,37,7.80
2007,12,05,09,38,7.80
2007,12,05,09,39,7.80
2007,12,05,09,40,7.80
2007,12,05,09,41,7.80
2007,12,05,09,42,7.80
2007,12,05,09,43,7.80
2007,12,05,09,44,7.80
2007,12,05,09,45,7.90
2007,12,05,09,46,7.80
2007,12,05,09,47,7.80
2007,12,05,09,48,7.80
2007,12,05,09,49,7.80
2007,12,05,09,50,7.80
2007,12,05,09,51,7.80
2007,12,05,09,52,7.80
2007,12,05,09,53,7.80
2007,12,05,09,54,7.80
2007,12,05,09,55,7.90
2007,12,05,09,56,7.90
2007,12,05,09,57,7.90
2007,12,05,09,58,7.90
2007,12,05,09,59,7.90
2007,12,05,10,00,7.90
2007,12,05,10,01,8.00
2007,12,05,10,02,8.00
2007,12,05,10,03,8.00
2007,12,05,10,04,8.00
2007,12,05,10,05,8.10
2007,12,05,10,06,8.10
2007,12,05,10,07,8.10
2007,12,05,10,08,8.10
2007,12,05,10,09,8.10
2007,12,05,10,10,8.10
2007,12,05,10,11,8.20
2007,12,05,10,12,8.20
2007,12,05,10,13,8.20
2007,12,05,10,14,8.20
2007,12,05,10,15,8.20
2007,12,05,10,16,8.20
2007,12,05,10,17,8.20
2007,12,05,10,18,8.20
2007,12,05,10,19,8.20
2007,12,05,10,20,8.20
2007,12,05,10,21,8.20
2007,12,05,10,22,8.20
2007,12,05,10,23,8.20
2007,12,05,10,24,8.20
2007,12,05,10,25,8.10
2007,12,05,10,26,8.20
2007,12,05,10,27,8.20
2007,12,05,10,28,8.20
2007,12,05,10,29,8.10
2007,12,05,10,30,8.10
2007,12,05,10,31,8.10
2007,12,05,10,32,8.10
2007,12,05,10,33,8.20
2007,12,05,10,34,8.20
2007,12,05,10,35,8.20
2007,12,05,10,36,8.20
2007,12,05,10,37,8.20
2007,12,05,10,38,8.20
2007,12,05,10,39,8.20
2007,12,05,10,40,8.20
2007,12,05,10,41,8.20
2007,12,05,10,42,8.20
2007,12,05,10,43,8.20
2007,12,05,10,44,8.20
2007,12,05,10,45,8.20
2007,12,05,10,46,8.20
2007,12,05,10,47,8.20
2007,12,05,10,48,8.20
2007,12,05,10,49,8.20
2007,12,05,10,50,8.20
2007,12,05,10,51,8.20
2007,12,05,10,52,8.20
2007,12,05,10,53,8.20
2007,12,05,10,54,8.30
2007,12,05,10,55,8.30
2007,12,05,10,56,8.30
2007,12,05,10,57,8.30
2007,12,05,10,58,8.30
2007,12,05,10,59,8.30
2007,12,05,11,00,8.30
2007,12,05,11,01,8.30
2007,12,05,11,02,8.30
2007,12,05,11,03,8.30
2007,12,05,11,04,8.30
2007,12,05,11,05,8.30
2007,12,05,11,06,8.30
2007,12,05,11,07,8.40
2007,12,05,11,08,8.40
2007,12,05,11,09,8.40
2007,12,05,11,10,8.50
2007,12,05,11,11,8.50
2007,12,05,11,12,8.50
2007,12,05,11,13,8.50
2007,12,05,11,14,8.60
2007,12,05,11,15,8.60
2007,12,05,11,16,8.60
2007,12,05,11,17,8.60
2007,12,05,11,18,8.60
2007,12,05,11,19,8.60
2007,12,05,11,20,8.60
2007,12,05,11,21,8.60
2007,12,05,11,22,8.60
2007,12,05,11,23,8.60
2007,12,05,11,24,8.60
2007,12,05,11,25,8.60
2007,12,05,11,26,8.60
2007,12,05,11,27,8.60
2007,12,05,11,28,8.60
2007,12,05,11,29,8.60
2007,12,05,11,30,8.60
2007,12,05,11,31,8.60
2007,12,05,11,32,8.50
2007,12,05,11,33,8.50
2007,12,05,11,34,8.50
2007,12,05,11,35,8.50
2007,12,05,11,36,8.60
2007,12,05,11,37,8.60
2007,12,05,11,38,8.60
2007,12,05,11,39,8.60
2007,12,05,11,40,8.60
2007,12,05,11,41,8.60
2007,12,05,11,42,8.60
2007,12,05,11,43,8.60
2007,12,05,11,44,8.60
2007,12,05,11,45,8.70
2007,12,05,11,46,8.70
2007,12,05,11,47,8.70
2007,12,05,11,48,8.70
2007,12,05,11,49,8.70
2007,12,05,11,50,8.70
2007,12,05,11,51,8.70
2007,12,05,11,52,8.70
2007,12,05,11,53,8.70
2007,12,05,11,54,8.70
2007,12,05,11,55,8.70
2007,12,05,11,56,8.70
2007,12,05,11,57,8.70
2007,12,05,11,58,8.70
2007,12,05,11,59,8.70
2007,12,05,12,00,8.70
2007,12,05,12,01,8.70
2007,12,05,12,02,8.70
2007,12,05,12,03,8.70
2007,12,05,12,04,8.70
2007,12,05,12,05,8.80
2007,12,05,12,06,8.80
2007,12,05,12,07,8.80
2007,12,05,12,08,8.80
2007,12,05,12,09,8.80
2007,12,05,12,10,8.80
2007,12,05,12,11,8.90
2007,12,05,12,12,8.90
2007,12,05,12,13,8.90
2007,12,05,12,14,8.90
2007,12,05,12,15,8.90
2007,12,05,12,16,8.90
2007,12,05,12,17,8.90
2007,12,05,12,18,8.90
2007,12,05,12,19,8.90
2007,12,05,12,20,8.90
2007,12,05,12,21,8.90
2007,12,05,12,22,8.90
2007,12,05,12,23,8.90
2007,12,05,12,24,8.90
2007,12,05,12,25,9.00
2007,12,05,12,26,9.00
2007,12,05,12,27,9.00
2007,12,05,12,28,9.00
2007,12,05,12,29,9.00
2007,12,05,12,30,8.90
2007,12,05,12,31,8.90
2007,12,05,12,32,8.90
2007,12,05,12,33,8.90
2007,12,05,12,34,8.90
2007,12,05,12,35,8.90
2007,12,05,12,36,8.90
2007,12,05,12,37,9.00
2007,12,05,12,38,9.00
2007,12,05,12,39,9.00
2007,12,05,12,40,9.00
2007,12,05,12,41,9.00
2007,12,05,12,42,9.00
2007,12,05,12,43,9.00
2007,12,05,12,44,9.00
2007,12,05,12,45,9.10
2007,12,05,12,46,9.10
2007,12,05,12,47,9.20
2007,12,05,12,48,9.20
2007,12,05,12,49,9.20
2007,12,05,12,50,9.20
2007,12,05,12,51,9.20
2007,12,05,12,52,9.20
2007,12,05,12,53,9.20
2007,12,05,12,54,9.30
2007,12,05,12,55,9.30
2007,12,05,12,56,9.30
2007,12,05,12,57,9.40
2007,12,05,12,58,9.30
2007,12,05,12,59,9.40
2007,12,05,13,00,9.40
2007,12,05,13,01,9.40
2007,12,05,13,02,9.40
2007,12,05,13,03,9.50
2007,12,05,13,04,9.40
2007,12,05,13,05,9.40
2007,12,05,13,06,9.40
2007,12,05,13,07,9.40
2007,12,05,13,08,9.40
2007,12,05,13,09,9.40
2007,12,05,13,10,9.40
2007,12,05,13,11,9.30
2007,12,05,13,12,9.30
2007,12,05,13,13,9.30
2007,12,05,13,14,9.30
2007,12,05,13,15,9.20
2007,12,05,13,16,9.10
2007,12,05,13,17,9.10
2007,12,05,13,18,9.10
2007,12,05,13,19,9.10
2007,12,05,13,20,9.00
2007,12,05,13,21,9.00
2007,12,05,13,22,8.90
2007,12,05,13,23,8.90
2007,12,05,13,24,8.90
2007,12,05,13,25,8.90
2007,12,05,13,26,8.90
2007,12,05,13,27,8.90
2007,12,05,13,28,8.80
2007,12,05,13,29,8.80
2007,12,05,13,30,8.80
2007,12,05,13,31,8.80
2007,12,05,13,32,8.80
2007,12,05,13,33,8.80
2007,12,05,13,34,8.80
2007,12,05,13,35,8.80
2007,12,05,13,36,8.80
2007,12,05,13,37,8.70
2007,12,05,13,38,8.70
2007,12,05,13,39,8.70
2007,12,05,13,40,8.70
2007,12,05,13,41,8.70
2007,12,05,13,42,8.70
2007,12,05,13,43,8.70
2007,12,05,13,44,8.70
2007,12,05,13,45,8.70
2007,12,05,13,46,8.70
2007,12,05,13,47,8.70
2007,12,05,13,48,8.70
2007,12,05,13,49,8.70
2007,12,05,13,50,8.70
2007,12,05,13,51,8.70
2007,12,05,13,52,8.70
2007,12,05,13,53,8.70
2007,12,05,13,54,8.70
2007,12,05,13,55,8.70
2007,12,05,13,56,8.60
2007,12,05,13,57,8.60
2007,12,05,13,58,8.60
2007,12,05,13,59,8.60
2007,12,05,14,00,8.60
2007,12,05,14,01,8.60
2007,12,05,14,02,8.60
2007,12,05,14,03,8.70
2007,12,05,14,04,8.70
2007,12,05,14,05,8.80
2007,12,05,14,06,8.80
2007,12,05,14,07,8.80
2007,12,05,14,08,8.90
2007,12,05,14,09,8.90
2007,12,05,14,10,8.90
2007,12,05,14,11,8.90
2007,12,05,14,12,8.90
2007,12,05,14,13,8.90
2007,12,05,14,14,8.90
2007,12,05,14,15,8.90
2007,12,05,14,16,8.90
2007,12,05,14,17,8.90
2007,12,05,14,18,8.90
2007,12,05,14,19,8.90
2007,12,05,14,20,8.90
2007,12,05,14,21,8.90
2007,12,05,14,22,8.90
2007,12,05,14,23,8.80
2007,12,05,14,24,8.80
2007,12,05,14,25,8.80
2007,12,05,14,26,8.70
2007,12,05,14,27,8.70
2007,12,05,14,28,8.70
2007,12,05,14,29,8.70
2007,12,05,14,30,8.70
2007,12,05,14,31,8.70
2007,12,05,14,32,8.70
2007,12,05,14,33,8.70
2007,12,05,14,34,8.70
2007,12,05,14,35,8.70
2007,12,05,14,36,8.70
2007,12,05,14,37,8.70
2007,12,05,14,38,8.70
2007,12,05,14,39,8.70
2007,12,05,14,40,8.70
2007,12,05,14,41,8.70
2007,12,05,14,42,8.70
2007,12,05,14,43,8.60
2007,12,05,14,44,8.60
2007,12,05,14,45,8.60
2007,12,05,14,46,8.50
2007,12,05,14,47,8.50
2007,12,05,14,48,8.50
2007,12,05,14,49,8.50
2007,12,05,14,50,8.40
2007,12,05,14,51,8.40
2007,12,05,14,52,8.40
2007,12,05,14,53,8.40
2007,12,05,14,54,8.40
2007,12,05,14,55,8.40
2007,12,05,14,56,8.40
2007,12,05,14,57,8.40
2007,12,05,14,58,8.40
2007,12,05,14,59,8.30
2007,12,05,15,00,8.30
2007,12,05,15,01,8.30
2007,12,05,15,02,8.30
2007,12,05,15,03,8.30
2007,12,05,15,04,8.30
2007,12,05,15,05,8.20
2007,12,05,15,06,8.20
2007,12,05,15,07,8.20
2007,12,05,15,08,8.20
2007,12,05,15,09,8.20
2007,12,05,15,10,8.20
2007,12,05,15,11,8.20
2007,12,05,15,12,8.10
2007,12,05,15,13,8.10
2007,12,05,15,14,8.10
2007,12,05,15,15,8.10
2007,12,05,15,16,8.10
2007,12,05,15,17,8.00
2007,12,05,15,18,8.00
2007,12,05,15,19,8.00
2007,12,05,15,20,8.00
2007,12,05,15,21,8.00
2007,12,05,15,22,7.90
2007,12,05,15,23,7.90
2007,12,05,15,24,7.90
2007,12,05,15,25,7.90
2007,12,05,15,26,7.90
2007,12,05,15,27,7.80
2007,12,05,15,28,7.80
2007,12,05,15,29,7.80
2007,12,05,15,30,7.80
2007,12,05,15,31,7.80
2007,12,05,15,32,7.80
2007,12,05,15,33,7.80
2007,12,05,15,34,7.70
2007,12,05,15,35,7.70
2007,12,05,15,36,7.70
2007,12,05,15,37,7.70
2007,12,05,15,38,7.70
2007,12,05,15,39,7.60
2007,12,05,15,40,7.60
2007,12,05,15,41,7.60
2007,12,05,15,42,7.60
2007,12,05,15,43,7.50
2007,12,05,15,44,7.50
2007,12,05,15,45,7.50
2007,12,05,15,46,7.40
2007,12,05,15,47,7.40
2007,12,05,15,48,7.40
2007,12,05,15,49,7.40
2007,12,05,15,50,7.30
2007,12,05,15,51,7.30
2007,12,05,15,52,7.30
2007,12,05,15,53,7.30
2007,12,05,15,54,7.30
2007,12,05,15,55,7.30
2007,12,05,15,56,7.30
2007,12,05,15,57,7.30
2007,12,05,15,58,7.20
2007,12,05,15,59,7.20
2007,12,05,16,00,7.20
2007,12,05,16,01,7.20
2007,12,05,16,02,7.20
2007,12,05,16,03,7.20
2007,12,05,16,04,7.20
2007,12,05,16,05,7.20
2007,12,05,16,06,7.20
2007,12,05,16,07,7.10
2007,12,05,16,08,7.10
2007,12,05,16,09,7.10
2007,12,05,16,10,7.00
2007,12,05,16,11,7.00
2007,12,05,16,12,6.90
2007,12,05,16,13,6.90
2007,12,05,16,14,6.90
2007,12,05,16,15,6.80
2007,12,05,16,16,6.80
2007,12,05,16,17,6.80
2007,12,05,16,18,6.80
2007,12,05,16,19,6.80
2007,12,05,16,20,6.70
2007,12,05,16,21,6.60
2007,12,05,16,22,6.50
2007,12,05,16,23,6.40
2007,12,05,16,24,6.30
2007,12,05,16,25,6.30
2007,12,05,16,26,6.20
2007,12,05,16,27,6.10
2007,12,05,16,28,6.00
2007,12,05,16,29,6.00
2007,12,05,16,30,5.90
2007,12,05,16,31,5.90
2007,12,05,16,32,5.80
2007,12,05,16,33,5.80
2007,12,05,16,34,5.70
2007,12,05,16,35,5.70
2007,12,05,16,36,5.60
2007,12,05,16,37,5.60
2007,12,05,16,38,5.50
2007,12,05,16,39,5.40
2007,12,05,16,40,5.40
2007,12,05,16,41,5.30
2007,12,05,16,42,5.20
2007,12,05,16,43,5.10
2007,12,05,16,44,5.10
2007,12,05,16,45,5.00
2007,12,05,16,46,5.00
2007,12,05,16,47,4.90
2007,12,05,16,48,4.80
2007,12,05,16,49,4.80
2007,12,05,16,50,4.80
2007,12,05,16,51,4.80
2007,12,05,16,52,4.70
2007,12,05,16,53,4.70
2007,12,05,16,54,4.70
2007,12,05,16,55,4.60
2007,12,05,16,56,4.60
2007,12,05,16,57,4.50
2007,12,05,16,58,4.50
2007,12,05,16,59,4.50
2007,12,05,17,00,4.40
2007,12,05,17,01,4.40
2007,12,05,17,02,4.30
2007,12,05,17,03,4.30
2007,12,05,17,04,4.30
2007,12,05,17,05,4.20
2007,12,05,17,06,4.20
2007,12,05,17,07,4.10
2007,12,05,17,08,4.10
2007,12,05,17,09,4.00
2007,12,05,17,10,3.90
2007,12,05,17,11,3.90
2007,12,05,17,12,3.90
2007,12,05,17,13,3.90
2007,12,05,17,14,3.80
2007,12,05,17,15,3.80
2007,12,05,17,16,3.80
2007,12,05,17,17,3.80
2007,12,05,17,18,3.90
2007,12,05,17,19,3.90
2007,12,05,17,20,3.80
2007,12,05,17,21,3.80
2007,12,05,17,22,3.80
2007,12,05,17,23,3.80
2007,12,05,17,24,3.80
2007,12,05,17,25,3.80
2007,12,05,17,26,3.80
2007,12,05,17,27,3.70
2007,12,05,17,28,3.70
2007,12,05,17,29,3.70
2007,12,05,17,30,3.60
2007,12,05,17,31,3.60
2007,12,05,17,32,3.50
2007,12,05,17,33,3.50
2007,12,05,17,34,3.40
2007,12,05,17,35,3.40
2007,12,05,17,36,3.30
2007,12,05,17,37,3.30
2007,12,05,17,38,3.20
2007,12,05,17,39,3.10
2007,12,05,17,40,3.10
2007,12,05,17,41,3.00
2007,12,05,17,42,2.90
2007,12,05,17,43,2.90
2007,12,05,17,44,2.90
2007,12,05,17,45,2.90
2007,12,05,17,46,2.80
2007,12,05,17,47,2.80
2007,12,05,17,48,2.80
2007,12,05,17,49,2.80
2007,12,05,17,50,2.80
2007,12,05,17,51,2.80
2007,12,05,17,52,2.80
2007,12,05,17,53,2.70
2007,12,05,17,54,2.70
2007,12,05,17,55,2.70
2007,12,05,17,56,2.60
2007,12,05,17,57,2.60
2007,12,05,17,58,2.60
2007,12,05,17,59,2.60
2007,12,05,18,00,2.60
2007,12,05,18,01,2.60
2007,12,05,18,02,2.50
2007,12,05,18,03,2.50
2007,12,05,18,04,2.40
2007,12,05,18,05,2.40
2007,12,05,18,06,2.40
2007,12,05,18,07,2.40